Sandberg, CA

11:30 AM PDT on October 18, 2017 (GMT -0700)
Sandberg

Weather History for KSDB - March, 2014

Change the Weather History Date:

Friday, March 28, 2014

  Actual Average Record
Temperature  
Mean Temperature 52 °F 48 °F  
Max Temperature 62 °F 56 °F 79 °F (2015)
Min Temperature 41 °F 40 °F 22 °F (1975)
Degree Days  
Heating Degree Days 13 17  
Month to date heating degree days 296 519  
Since 1 July heating degree days 2081 3278  
Cooling Degree Days 0 0  
Month to date cooling degree days 3 0  
Year to date cooling degree days 10 0  
Growing Degree Days 2 (Base 50)    
Moisture  
Dew Point 30 °F    
Average Humidity 47    
Maximum Humidity 70    
Minimum Humidity 24    
Precipitation  
Precipitation 0.00 in 0.04 in 3.38 in (1993)
Month to date precipitation 0.24 1.60  
Year to date precipitation 3.15 7.25  
Since 1 July precipitation 3.93  
Sea Level Pressure  
Sea Level Pressure 30.10 in    
Wind  
Wind Speed 15 mph (NNW)    
Max Wind Speed 39 mph    
Max Gust Speed 44 mph    
Visibility 10 miles    
Events      
T = Trace of Precipitation, MM = Missing Value Source: NWS Daily Summary

Daily Weather History Graph

Daily Weather History Graph

Search for Another Location

Airport or City:

Trip Planner

Search our weather history database for the weather conditions in past years. The results will help you decide how hot, cold, wet, or windy it might be!

Date:

Astronomy

Mar. 28, 2014 Rise Set
Actual Time 6:47 AM PDT 7:13 PM PDT
Civil Twilight 6:22 AM PDT 7:38 PM PDT
Nautical Twilight 5:52 AM PDT 8:08 PM PDT
Astronomical Twilight 5:22 AM PDT 8:38 PM PDT
Moon 5:16 AM PDT (3/28) 5:19 PM PDT (3/28)
Length of Visible Light 13h 16m
Length of Day
12h 25m
Waning Crescent, 5% of the Moon is Illuminated
Mar 28
Waning Crescent
Mar 30
New
Apr 7
First Quarter
Apr 15
Full
Apr 22
Last Quarter

Hourly Weather History & Observations

Time (PDT) Temp. Windchill Dew Point Humidity Pressure Visibility Wind Dir Wind Speed Gust Speed Precip Events Conditions
12:48 AM 43.0 °F 38.8 °F 32.0 °F 65% 30.07 in 10.0 mi Variable 6.9 mph - N/A   Partly Cloudy
1:10 AM 43.0 °F 37.2 °F 32.0 °F 65% 30.13 in 10.0 mi North 10.4 mph 17.3 mph N/A   Mostly Cloudy
1:48 AM 43.0 °F 38.8 °F 33.1 °F 68% 30.07 in 10.0 mi Variable 6.9 mph - N/A   Scattered Clouds
2:17 AM 43.0 °F - 33.1 °F 68% 30.14 in 10.0 mi North - - N/A   Mostly Cloudy
2:38 AM 43.0 °F 33.5 °F 33.1 °F 68% 30.12 in 10.0 mi NNW 24.2 mph 29.9 mph N/A   Scattered Clouds
2:48 AM 43.0 °F 31.7 °F 32.0 °F 65% 30.04 in 10.0 mi NNW 35.7 mph - N/A   Partly Cloudy
3:48 AM 41.0 °F 35.2 °F 32.0 °F 70% 30.05 in 10.0 mi NE 9.2 mph - N/A   Clear
4:48 AM 43.0 °F 38.8 °F 30.9 °F 62% 30.03 in 10.0 mi North 6.9 mph - N/A   Clear
5:48 AM 43.0 °F 33.3 °F 32.0 °F 65% 30.06 in 10.0 mi NNW 25.3 mph 38.0 mph N/A   Clear
6:48 AM 42.1 °F 30.4 °F 32.0 °F 67% 30.07 in 10.0 mi NNW 35.7 mph 40.3 mph N/A   Clear
7:48 AM 43.0 °F 34.0 °F 33.1 °F 68% 30.11 in 10.0 mi North 21.9 mph - N/A   Clear
8:48 AM 46.0 °F 38.5 °F 33.1 °F 61% 30.14 in 10.0 mi North 19.6 mph 28.8 mph N/A   Clear
9:48 AM 50.0 °F - 33.1 °F 52% 30.14 in 10.0 mi NNW 17.3 mph - N/A   Clear
10:48 AM 54.0 °F - 32.0 °F 43% 30.14 in 10.0 mi North 8.1 mph 17.3 mph N/A   Clear
11:48 AM 57.9 °F - 30.9 °F 36% 30.14 in 10.0 mi NNE 6.9 mph - N/A   Clear
12:48 PM 57.9 °F - 30.0 °F 35% 30.14 in 10.0 mi NNW 18.4 mph - N/A   Clear
1:48 PM 60.1 °F - 28.9 °F 31% 30.12 in 10.0 mi NNW 20.7 mph - N/A   Clear
2:48 PM 60.1 °F - 28.9 °F 31% 30.10 in 10.0 mi North 18.4 mph - N/A   Clear
3:48 PM 62.1 °F - 28.0 °F 28% 30.09 in 10.0 mi North 18.4 mph 24.2 mph N/A   Clear
4:48 PM 60.1 °F - 32.0 °F 35% 30.09 in 10.0 mi North 8.1 mph 18.4 mph N/A   Clear
5:48 PM 57.9 °F - 34.0 °F 41% 30.08 in 10.0 mi North 12.7 mph 23.0 mph N/A   Clear
6:48 PM 54.0 °F - 34.0 °F 47% 30.11 in 10.0 mi North 4.6 mph - N/A   Clear
7:48 PM 54.0 °F - 30.9 °F 41% 30.12 in 10.0 mi WNW 5.8 mph - N/A   Clear
8:48 PM 55.0 °F - 24.1 °F 30% 30.12 in 10.0 mi WNW 9.2 mph - N/A   Clear
9:48 PM 55.0 °F - 19.9 °F 25% 30.12 in 10.0 mi WNW 10.4 mph - N/A   Clear
10:48 PM 54.0 °F - 24.1 °F 31% 30.12 in 10.0 mi WNW 8.1 mph - N/A   Clear
11:48 PM 55.0 °F - 21.9 °F 28% 30.11 in 10.0 mi WNW 11.5 mph - N/A   Clear